Weather History for VDPP - February, 2013

Change the Weather History Date:

Friday, February 1, 2013

  Actual Average (WUND) Record (WUND)
Temperature  
Mean Temperature 82 °F -  
Max Temperature 91 °F 88 °F - (-1)
Min Temperature 74 °F 73 °F - (-1)
Cooling Degree Days 18    
Growing Degree Days 32 (Base 50)    
Moisture  
Dew Point 67 °F    
Average Humidity 57    
Maximum Humidity 81    
Minimum Humidity 38    
Precipitation  
Precipitation 0.00 in - - ()
Sea Level Pressure  
Sea Level Pressure 29.91 in    
Wind  
Wind Speed 5 mph ()    
Max Wind Speed 12 mph    
Max Gust Speed -    
Visibility 5.8 miles    
Events      
Averages and records for this station are not official NWS values.
T = Trace of Precipitation, MM = Missing Value Source: Averaged Metar Reports

Daily Weather History Graph

Daily Weather History Graph

Search for Another Location

Airport or City:

Trip Planner

Search our weather history database for the weather conditions in past years. The results will help you decide how hot, cold, wet, or windy it might be!

Date:

Astronomy

Feb. 01, 2013 Rise Set
Actual Time 6:25 AM ICT 6:03 PM ICT
Civil Twilight 6:03 AM ICT 6:25 PM ICT
Nautical Twilight 5:37 AM ICT 6:50 PM ICT
Astronomical Twilight 5:12 AM ICT 7:16 PM ICT
Moon 10:24 PM ICT 9:44 AM ICT
Length of Visible Light 12h 22m
Length of Day
11h 38m
Waning Gibbous, 75% of the Moon is Illuminated
Feb 1
Waning Gibbous
Feb 3
Last Quarter
Feb 10
New
Feb 18
First Quarter
Feb 26
Full

Hourly Weather History & Observations

Time (ICT) Temp. Heat Index Dew Point Humidity Pressure Visibility Wind Dir Wind Speed Gust Speed Precip Events Conditions
12:30 AM 80.6 °F 83.2 °F 68.0 °F 65% 29.92 in 5.6 mi SSW 4.6 mph - N/A   Partly Cloudy
1:00 AM 80.6 °F 83.2 °F 68.0 °F 65% 29.92 in 5.6 mi SSW 6.9 mph - N/A   Partly Cloudy
6:00 AM 75.2 °F - 68.0 °F 78% 29.92 in 5.0 mi SSW 4.6 mph - N/A   Unknown
6:30 AM 75.2 °F - 68.0 °F 78% 29.95 in 5.0 mi SSW 5.8 mph - N/A   Unknown
7:00 AM 74 °F - 69 °F 81% 29.99 in 6 mi South 4.5 mph - -   Partly Cloudy
7:00 AM 77.0 °F - 68.0 °F 74% 29.95 in 5.6 mi SW 5.8 mph - N/A   Unknown
7:30 AM 77.0 °F - 68.0 °F 74% 29.95 in - SW 6.9 mph - N/A   Clear
8:00 AM 78.8 °F - 69.8 °F 74% 29.98 in - SSW 6.9 mph - N/A   Clear
8:30 AM 80.6 °F 83.2 °F 68.0 °F 65% 29.98 in - SSW 8.1 mph - N/A   Clear
9:00 AM 80.6 °F 83.9 °F 69.8 °F 70% 29.98 in - South 9.2 mph - N/A   Clear
9:30 AM 82.4 °F 86.3 °F 69.8 °F 66% 29.98 in 6.2 mi SSE 11.5 mph - N/A   Partly Cloudy
10:00 AM 82.4 °F 86.3 °F 69.8 °F 66% 29.98 in 6.2 mi SSE 6.9 mph - N/A   Partly Cloudy
10:30 AM 84.2 °F 88.4 °F 69.8 °F 62% 29.98 in 6.2 mi South 3.5 mph - N/A   Partly Cloudy
11:00 AM 87.8 °F 91.4 °F 68.0 °F 52% 29.95 in - SSE 4.6 mph - N/A   Clear
11:30 AM 87.8 °F 90.4 °F 66.2 °F 49% 29.95 in 6.2 mi South 3.5 mph - N/A   Partly Cloudy
12:00 PM 89.6 °F 92.2 °F 66.2 °F 46% 29.95 in 6.2 mi SW 3.5 mph - N/A   Partly Cloudy
12:30 PM 89.6 °F 92.2 °F 66.2 °F 46% 29.92 in 6.2 mi NNE 4.6 mph - N/A   Partly Cloudy
1:00 PM 91.4 °F 94.0 °F 66.2 °F 43% 29.89 in 6.2 mi WNW 4.6 mph - N/A   Partly Cloudy
1:30 PM 91.4 °F 94.0 °F 66.2 °F 43% 29.89 in 6.2 mi SSE 3.5 mph - N/A   Partly Cloudy
2:00 PM 91.4 °F 94.0 °F 66.2 °F 43% 29.86 in 6.2 mi NE 6.9 mph - N/A   Partly Cloudy
2:30 PM 91.4 °F 92.1 °F 62.6 °F 38% 29.86 in - WNW 2.3 mph - N/A   Clear
3:00 PM 91.4 °F 93.2 °F 64.4 °F 41% 29.83 in - East 5.8 mph - N/A   Clear
4:00 PM 91.4 °F 94.0 °F 66.2 °F 43% 29.83 in - NNE 8.1 mph - N/A   Clear
4:30 PM 89.6 °F 92.2 °F 66.2 °F 46% 29.83 in - NNE 3.5 mph - N/A   Clear
5:00 PM 91.4 °F 94.0 °F 66.2 °F 43% 29.83 in - East 2.3 mph - N/A   Clear
5:30 PM 89.6 °F 92.2 °F 66.2 °F 46% 29.83 in - ENE 3.5 mph - N/A   Clear
6:00 PM 89.6 °F 91.1 °F 64.4 °F 43% 29.86 in - West 2.3 mph - N/A   Clear
6:30 PM 87.8 °F 91.4 °F 68.0 °F 52% 29.86 in 5.6 mi NNW 3.5 mph - N/A   Unknown
7:00 PM 87.8 °F 90.4 °F 66.2 °F 49% 29.86 in 5.6 mi West 3.5 mph - N/A   Unknown
7:30 PM 87.8 °F 91.4 °F 68.0 °F 52% 29.86 in 5.6 mi WSW 2.3 mph - N/A   Unknown
8:30 PM 86.0 °F 89.4 °F 68.0 °F 55% 29.89 in 5.6 mi NW 2.3 mph - N/A   Unknown
9:00 PM 86.0 °F 89.4 °F 68.0 °F 55% 29.89 in 5.6 mi SW 2.3 mph - N/A   Unknown
9:30 PM 86.0 °F 89.4 °F 68.0 °F 55% 29.89 in 5.6 mi SSW 4.6 mph - N/A   Unknown
10:00 PM 84.2 °F 87.3 °F 68.0 °F 58% 29.89 in 5.6 mi SSW 5.8 mph - N/A   Unknown
10:30 PM 82.4 °F 85.4 °F 68.0 °F 62% 29.89 in 5.6 mi South 4.6 mph - N/A   Unknown
11:00 PM 80.6 °F 83.2 °F 68.0 °F 65% 29.89 in 5.6 mi South 4.6 mph - N/A   Unknown
11:30 PM 80.6 °F 83.2 °F 68.0 °F 65% 29.89 in 5.6 mi South 5.8 mph - N/A   Unknown